Find Starlink 5383

NORAD ID: 54827 Int'l Des: 2022-177 Owner: SPXS Country: US Constellation: starlink operational
LEOCIRCULAR

当前视图

正在加载3D地球...

About Starlink 5383

Starlink 5383 (NORAD 54827) is a starlink constellation satellite (v1.5) launched Dec 28, 2022 by SPXS of US. It operates in LEO, CIRCULAR orbit with a mass of 305.00 kg.

关于 Starlink 5383

正在加载描述...

即将过境

Passes for default location (London). Set your location on the main map for personalized predictions.

高度历史

Loading altitude history...

两行轨道根数

1 54827U 22177H 26173.71478948 .00000820 00000-0 39316-4 0 9998
2 54827 43.0017 263.0991 0001662 272.6483 87.4179 15.27579428192985
Epoch: Jun 22, 2026 • Age: 24 hours

当前状态

高度 483.0 km
速度 7.63 km/s
星下点 22.04°N, 118.65°E
发射日期 Dec 28, 2022
运行时间 3.4 years
类型 internet

技术详情

分类 Payload
质量 305.00 kg
干质量 290.00 kg
总质量 305.00 kg
长度 0.20 m
直径 2.80 m
跨度 9.00 m
形状 Box + pan
制造商 SPXS
平台类型 Starlink
阶段状态 In Orbit
所有者/国家 SPXS/US

Most Searched